View from above orbital plane
|
View from above satellite
|
Ground track
|
The orbit data is extracted from the following two-line orbital elements,
1 28352U 04021A 18114.61327665 .00000339 00000-0 21216-3 0 9998
2 28352 71.0038 194.4210 0015869 342.1897 17.8665 14.11643224714794
Epoch (UTC): | 24 April 2018 14:43:07 |
Eccentricity: | 0.0015869 |
inclination: | 71.0038° |
perigee height: | 842 km |
apogee height: | 865 km |
right ascension of ascending node: | 194.4210° |
argument of perigee: | 342.1897° |
revolutions per day: | 14.11643224 |
mean anomaly at epoch: | 17.8665° |
orbit number at epoch: | 71479 |
The dashed part of the orbit path shows where the satellite is in the earth's shadow,
|
|